Location: Praha
(50.0830°N, 14.4670°E)
Time: 18:50:14
(UTC+02:00)

ISS - Pass Details

Date: 14 July 2021
Orbit: 419 x 421 km, 51.6° (Epoch: 02 August)

Event Time Altitude Azimuth Distance (km) Brightness Sun altitude
Rises 22:06:52 0° 214° (SW) 2,358 -0.1 -7.9°
Reaches altitude 10° 22:09:12 10° 200° (SSW) 1,497 -1.2 -8.2°
Maximum altitude 22:11:59 24° 144° (SE) 908 -2.7 -8.5°
Drops below altitude 10° 22:14:47 10° 88° (E) 1,504 -1.3 -8.8°
Sets 22:17:07 0° 74° (ENE) 2,371 -0.2 -9.0°
